Location: Hope
(40.9110°N, 74.9680°W)
Time: 02:34:47
(UTC-04:00)

Hubble Space Telescope - Visible Passes

Search period start: 27 April 2018 00:00
Search period end: 07 May 2018 00:00
Orbit: 537 x 541 km, 28.5° (Epoch: 26 April)

Date Brightness Start Highest point End Pass type
(mag) Time Alt. Az. Time Alt. Az. Time Alt. Az.
27 Apr 2.8 21:09:31 10° SSW 21:11:13 13° S 21:11:13 13° S visible
28 Apr 2.7 20:58:49 10° SSW 21:00:52 13° S 21:01:43 13° SSE visible
29 Apr 2.8 20:48:13 10° SSW 20:50:26 14° S 20:52:07 12° SSE visible
30 Apr 2.8 20:37:42 10° SSW 20:39:59 14° S 20:42:16 10° SE visible
01 May 2.8 20:27:16 10° SW 20:29:32 14° S 20:31:49 10° SSE visible
